Lake Clear, NY

6:03 AM EST on December 05, 2016 (GMT -0500)
Adirondack Regional

Weather History for KSLK - September, 2012

Change the Weather History Date:

Wednesday, September 19, 2012

  Actual Average Record
Temperature  
Mean Temperature 43 °F 52 °F  
Max Temperature 56 °F 65 °F 83 °F (1955)
Min Temperature 29 °F 40 °F 21 °F (2014)
Degree Days  
Heating Degree Days 22 13  
Month to date heating degree days 160 180  
Since 1 July heating degree days 339 420  
Cooling Degree Days 0 0  
Month to date cooling degree days 4 7  
Year to date cooling degree days 155 114  
Moisture  
Dew Point 39 °F    
Average Humidity 71    
Maximum Humidity 100    
Minimum Humidity 41    
Precipitation  
Precipitation T in 0.12 in 1.17 in (1991)
Month to date precipitation 4.48 2.16  
Year to date precipitation 24.69 26.70  
Sea Level Pressure  
Sea Level Pressure 29.96 in    
Wind  
Wind Speed 6 mph (WSW)    
Max Wind Speed 18 mph    
Max Gust Speed 26 mph    
Visibility 10 miles    
Events      
T = Trace of Precipitation, MM = Missing Value Source: NWS Daily Summary

Daily Weather History Graph

Daily Weather History Graph

Search for Another Location

Airport or City:

Trip Planner

Search our weather history database for the weather conditions in past years. The results will help you decide how hot, cold, wet, or windy it might be!

Date:

Astronomy

Sep. 19, 2012 Rise Set
Actual Time 6:41 AM EDT 6:59 PM EDT
Civil Twilight 6:11 AM EDT 7:28 PM EDT
Nautical Twilight 5:37 AM EDT 8:02 PM EDT
Astronomical Twilight 5:02 AM EDT 8:37 PM EDT
Moon 11:00 AM EDT (9/19) 8:53 PM EDT (9/19)
Length of Visible Light 13h 16m
Length of Day
12h 18m
Waxing Crescent, 17% of the Moon is Illuminated
Sep 19
Waxing Crescent
Sep 22
First Quarter
Sep 29
Full
Oct 8
Last Quarter
Oct 15
New

Hourly Weather History & Observations

Time (EDT) Temp. Windchill Dew Point Humidity Pressure Visibility Wind Dir Wind Speed Gust Speed Precip Events Conditions
12:17 AM 53.6 °F - 53.6 °F 100% 29.66 in 8.0 mi SW 11.5 mph 17.3 mph 0.01 in   Overcast
12:49 AM 53.6 °F - 50.0 °F 88% 29.69 in 10.0 mi SW 15.0 mph 26.5 mph 0.02 in   Overcast
12:51 AM 52.0 °F - 50.0 °F 93% 29.70 in 10.0 mi SW 17.3 mph 27.6 mph 0.02 in   Overcast
1:49 AM 50.0 °F - 48.2 °F 94% 29.72 in 10.0 mi SW 13.8 mph 18.4 mph 0.00 in   Overcast
1:51 AM 50.0 °F - 48.0 °F 93% 29.72 in 10.0 mi SW 11.5 mph - 0.00 in   Overcast
2:27 AM 48.2 °F - 46.4 °F 93% 29.74 in 10.0 mi WSW 13.8 mph 23.0 mph N/A   Overcast
2:51 AM 48.2 °F - 44.6 °F 87% 29.75 in 10.0 mi WSW 15.0 mph 26.5 mph N/A   Overcast
3:51 AM 45.0 °F 39.3 °F 42.1 °F 90% 29.78 in 10.0 mi West 11.5 mph 21.9 mph N/A   Overcast
4:09 AM 44.6 °F 43.1 °F 42.8 °F 93% 29.80 in 10.0 mi Variable 3.5 mph - N/A   Overcast
4:51 AM 44.6 °F 39.2 °F 39.2 °F 81% 29.82 in 10.0 mi West 10.4 mph - N/A   Overcast
5:13 AM 42.8 °F 40.1 °F 39.2 °F 87% 29.84 in 10.0 mi Variable 4.6 mph 18.4 mph N/A   Overcast
5:33 AM 42.8 °F 38.6 °F 39.2 °F 87% 29.85 in 10.0 mi West 6.9 mph - N/A   Overcast
5:51 AM 42.1 °F 36.6 °F 39.0 °F 89% 29.86 in 10.0 mi WSW 9.2 mph - N/A   Overcast
6:51 AM 41.0 °F 35.2 °F 37.0 °F 86% 29.91 in 10.0 mi West 9.2 mph 20.7 mph N/A   Overcast
7:07 AM 41.0 °F 35.8 °F 37.4 °F 87% 29.91 in 10.0 mi WSW 8.1 mph - N/A   Overcast
7:51 AM 41.0 °F 35.8 °F 37.4 °F 87% 29.93 in 10.0 mi WSW 8.1 mph 16.1 mph N/A   Overcast
8:51 AM 42.1 °F 37.1 °F 37.9 °F 85% 29.97 in 10.0 mi WSW 8.1 mph - N/A   Overcast
9:41 AM 42.8 °F 39.3 °F 37.4 °F 81% 29.98 in 10.0 mi Variable 5.8 mph - N/A   Mostly Cloudy
9:51 AM 46.0 °F 41.4 °F 37.9 °F 73% 29.99 in 10.0 mi WSW 9.2 mph - N/A   Mostly Cloudy
10:51 AM 48.0 °F - 37.0 °F 66% 30.01 in 10.0 mi Variable 6.9 mph - N/A   Scattered Clouds
11:03 AM 48.2 °F - 37.4 °F 66% 30.01 in 10.0 mi Variable 6.9 mph - N/A   Mostly Cloudy
11:33 AM 50.0 °F - 37.4 °F 62% 30.02 in 10.0 mi WSW 6.9 mph - N/A   Scattered Clouds
11:51 AM 51.1 °F - 36.0 °F 56% 30.04 in 10.0 mi WSW 12.7 mph 16.1 mph N/A   Partly Cloudy
12:51 PM 52.0 °F - 33.1 °F 49% 30.06 in 10.0 mi Variable 4.6 mph - N/A   Mostly Cloudy
1:51 PM 52.0 °F - 33.1 °F 49% 30.08 in 10.0 mi West 8.1 mph 16.1 mph N/A   Scattered Clouds
2:51 PM 54.0 °F - 34.0 °F 47% 30.09 in 10.0 mi WSW 9.2 mph 17.3 mph N/A   Clear
3:51 PM 55.4 °F - 32.0 °F 41% 30.09 in 10.0 mi WSW 10.4 mph - N/A   Scattered Clouds
4:51 PM 54.0 °F - 33.1 °F 45% 30.13 in 10.0 mi West 4.6 mph - N/A   Partly Cloudy
5:51 PM 53.1 °F - 34.0 °F 48% 30.15 in 10.0 mi West 3.5 mph - N/A   Partly Cloudy
6:51 PM 48.2 °F - 35.6 °F 62% 30.14 in 10.0 mi Calm Calm - N/A   Clear
7:51 PM 39.9 °F - 37.0 °F 89% 30.20 in 10.0 mi Calm Calm - N/A   Clear
8:51 PM 37.0 °F - 35.1 °F 93% 30.21 in 10.0 mi Calm Calm - N/A   Clear
9:51 PM 33.1 °F - 32.0 °F 96% 30.23 in 10.0 mi Calm Calm - N/A   Clear
10:51 PM 32.0 °F - 30.0 °F 92% 30.24 in 10.0 mi Calm Calm - N/A   Clear
11:51 PM 30.9 °F - 30.0 °F 96% 30.24 in 10.0 mi Calm Calm - N/A   Clear